Date,TemperatureHighF,TemperatureAvgF,TemperatureLowF,DewpointHighF,DewpointAvgF,DewpointLowF,HumidityHigh,HumidityAvg,HumidityLow,PressureMaxIn,PressureMinIn,WindSpeedMaxMPH,WindSpeedAvgMPH,GustSpeedMaxMPH,PrecipitationSumIn
2013-2-1,45.0,43.4,40.0,-99.9,-99.9,-99.9,0,0,100,29.85,29.36,0,-999,0,0.00
2013-2-2,44.0,41.8,38.0,-99.9,-99.9,-99.9,0,0,100,30.28,29.80,0,-999,0,0.00
2013-2-3,52.0,48.1,43.0,-99.9,-99.9,-99.9,0,0,100,30.18,29.82,0,-999,0,0.00
2013-2-4,49.0,45.4,38.0,-99.9,-99.9,-99.9,0,0,100,29.88,29.56,0,-999,0,0.00
2013-2-5,47.0,42.7,38.0,-99.9,-99.9,-99.9,0,0,100,29.57,29.41,0,-999,0,0.00
2013-2-6,45.0,42.1,38.0,-99.9,-99.9,-99.9,0,0,100,30.27,29.50,0,-999,0,0.00
2013-2-7,43.0,40.5,38.0,-99.9,-99.9,-99.9,0,0,100,30.21,29.97,0,-999,0,0.00
2013-2-8,45.0,42.4,38.0,-99.9,-99.9,-99.9,0,0,100,30.22,30.11,0,-999,0,0.00
2013-2-9,47.0,46.0,40.0,-99.9,-99.9,-99.9,0,0,100,30.06,29.78,0,-999,0,0.00
2013-2-10,40.0,39.1,38.0,-99.9,-99.9,-99.9,0,0,100,29.40,29.24,0,-999,0,0.00
2013-2-11,41.0,41.0,41.0,-99.9,-99.9,-99.9,0,0,100,29.59,29.59,0,-999,0,0.00
2013-2-12,41.0,39.0,36.0,-99.9,-99.9,-99.9,0,0,100,30.03,29.98,0,-999,0,0.00
2013-2-13,35.0,33.5,32.0,-99.9,-99.9,-99.9,0,0,100,30.02,29.94,0,-999,0,0.00
2013-2-18,46.0,44.8,43.0,-99.9,-99.9,-99.9,0,0,100,30.09,30.01,0,-999,0,0.00
2013-2-19,46.0,41.4,32.0,-99.9,-99.9,-99.9,0,0,100,30.12,30.05,0,-999,0,0.00
2013-2-20,46.0,41.3,35.0,-99.9,-99.9,-99.9,0,0,100,30.22,30.05,0,-999,0,0.00
2013-2-21,40.0,37.4,33.0,-99.9,-99.9,-99.9,0,0,100,30.28,30.14,0,-999,0,0.00
2013-2-22,38.0,36.5,34.0,-99.9,-99.9,-99.9,0,0,100,30.25,30.14,0,-999,0,0.00
2013-2-23,41.0,36.7,33.0,-99.9,-99.9,-99.9,0,0,100,30.31,30.19,0,-999,0,0.00
2013-2-24,39.0,38.1,36.0,-99.9,-99.9,-99.9,0,0,100,30.39,30.29,0,-999,0,0.00
2013-2-25,45.0,42.3,37.0,-99.9,-99.9,-99.9,0,0,100,30.58,30.52,0,-999,0,0.00
2013-2-26,44.0,40.9,40.0,-99.9,-99.9,-99.9,0,0,100,30.59,30.52,0,-999,0,0.00
2013-2-27,43.0,41.0,39.0,-99.9,-99.9,-99.9,0,0,100,30.65,30.55,0,-999,0,0.00
2013-2-28,45.0,40.9,36.0,-99.9,-99.9,-99.9,0,0,100,30.55,30.47,0,-999,0,0.00